ETSB

Details ICAO ETSB
Name BUCHEL
Region Germany - Military
Timezone Europe/Berlin (UTC+2.0)
Plans Departing 29
Arriving 22
Stats Elevation 1,568 ft / 478 m (AMSL)
Location 50.173808° 7.063321°
Runways 1
Magnetic Variation 1.978° E
Sunrise 2018-05-22 03:37:52 UTC / 2018-05-22 05:37:52 Local
Sunset 2018-05-22 19:21:48 UTC / 2018-05-22 21:21:48 Local
Advertisement - Login to hide

Runways

ID Width Length Bearing (true) Bearing (mag) Surface Threshold Offset Overrun Length
03 148 ft / 45 m 8,232 ft / 2,509 m 29.26° 27.28° Asphalt 0 ft / 0 m 902 ft / 275 m
21 148 ft / 45 m 8,232 ft / 2,509 m 209.28° 207.30° Asphalt 0 ft / 0 m 899 ft / 274 m

Map

Weather


0- 5 10 15 20 25 30 35+ Temperature / ° C

Clouds and Precipitation
Forecast for 2018-05-22 18:00 UTC. Updated an hour ago

Ground ~20,000 ft ~40,000 ft Winds

METAR

ETSB 221720Z AUTO 02005KT 7000 // ////// 15/13 Q1014 ///

TAF

Not found

Frequencies

Tower 122.10 MHz TWR
Approach 123.30 MHz RADAR
Approach 125.60 MHz LANGEN CON
Approach 130.15 MHz RADAR
Warning: Do not use this data for real-world aviation or navigation. No guarantee of current accuracy is given.